Location: Aldenham
(51.6667°N, 0.3500°W)
Time: 01:12:14
(UTC+00:00)

Cosmos 2251 Rocket - Pass Details

Date: 18 November 2025
Orbit: 760 x 788 km, 74.0° (Epoch: 13 December)

Event Time Altitude Azimuth Distance (km) Brightness Sun altitude
Rises 17:27:00 0° 179° (S) 3,234 6.9 -12.1°
Reaches altitude 10° 17:29:29 10° 172° (S) 2,316 6.1 -12.5°
Maximum altitude 17:34:21 40° 104° (ESE) 1,140 4.0 -13.2°
Enters shadow 17:38:36 14° 40° (NE) 2,105 5.3 -13.9°
